Regional Weather Roundup
Issued by NWS State College, PA

Home | Current Version | Previous Version | Text Only | Print | Product List | Glossary Off
Versions: 1 2 3 4 5 6 7 8 9 10 11 12 13 14 15 16 17 18 19 20 21 22 23 24 25 26 27 28 29 30 31 32 33 34 35 36 37 38 39 40 41 42 43 44 45 46 47 48 49 50

000
ASUS41 KCTP 260903
RWRCTP

REGIONAL WEATHER ROUNDUP
NATIONAL WEATHER SERVICE STATE COLLEGE PA
400 AM EST FRI DEC 26 2014

Note: "fair" indicates few or no clouds below 12,000 feet with no
significant weather and/or obstructions to visibility.

* = STATION THAT DOES NOT REPORT PRECIPITATION /E.G. RAIN...SNOW...ETC/
    THUNDER OR FOG.

PAZ002>004-007>009-013>016-020>023-029>032-261000-
WESTERN PENNSYLVANIA

CITY           SKY/WX    TMP DP  RH WIND       PRES   REMARKS
ERIE           CLEAR     35  27  72 S7        30.20S
MEADVILLE      CLOUDY    35  27  72 SW6       30.19R
FRANKLIN*      CLOUDY    36  27  69 SW9       30.21S
NEW CASTLE       N/A     35  29  79 SW7       30.23R
BEAVER COUNTY  NOT AVBL
BUTLER*        CLOUDY    36  27  69 W9        30.24R
PITTSBURGH INT PTCLDY    36  28  73 SW3       30.22R
PITTSBURGH     CLOUDY    36  26  67 SW8       30.22R
INDIANA*       CLOUDY    37  28  70 W10       30.25R
LATROBE        CLOUDY    37  30  75 SW9       30.25R
WASHINGTON CO* NOT AVBL
$$

PAZ004>006-010>012-017>019-024>028-033>037-041-042-045-046-049>053-261000-
CENTRAL PENNSYLVANIA

CITY           SKY/WX    TMP DP  RH WIND       PRES   REMARKS
BRADFORD       CLOUDY    32  25  75 VRB7      30.15R
DUBOIS         CLOUDY    34  27  75 W13       30.17R
CLEARFIELD     CLOUDY    35  26  69 W14G21    30.20R
JOHNSTOWN      CLOUDY    33  26  75 W14G20    30.17R
ALTOONA        CLEAR     30  25  81 CALM      30.18S
STATE COLLEGE  CLOUDY    34  27  75 W7        30.19R
WILLIAMSPORT   CLEAR     32  25  75 NW5       30.17R
SELINSGROVE    CLEAR     28  25  88 NW3       30.19S
FT INDIANTOWN  CLEAR     35  28  75 SW6       30.20R
CAPITAL CITY   CLEAR     30  26  85 W5        30.21R
HARRISBURG     CLEAR     35  28  75 SW3       30.21R
YORK           CLEAR     27  23  85 CALM      30.21R
$$

PAZ038>040-043-044-047-048-054-055-060>062-067>071-261000-
EASTERN PENNSYLVANIA

CITY           SKY/WX    TMP DP  RH WIND       PRES   REMARKS
SCRANTON       CLEAR     35  27  72 SW7       30.15R
MOUNT POCONO   CLEAR     32  25  75 NW7       30.08S
ALLENTOWN      CLEAR     31  25  78 SW5       30.16F
QUAKERTOWN*    NOT AVBL
READING        CLEAR     35  27  72 W6        30.19R
LANCASTER      CLEAR     32  27  81 CALM      30.21R
COATESVILLE    SUNNY     37  30  75 SW5       30.20R
POTTSTOWN      CLEAR     30  27  88 CALM      30.20R
BLUE BELL      CLEAR     32  30  93 CALM      30.19R
DOYLESTOWN     CLEAR     32  28  85 SW3       30.17S
WILLOW GROVE   NOT AVBL
NORTH PHILA    CLEAR     37  28  70 W3        30.20F
PHILADELPHIA   CLEAR     34  28  79 SW8       30.22R
$$



USA.gov is the U.S. government's official web portal to all federal, state and local government web resources and services.